カタログに戻る

STARLINK-6211

運用中通信VLEO
NORAD 57059·PAYLOAD·🇺🇸 United States

打ち上げ Jun 22, 2023 から Vandenberg Space Force Base

Loading…

次のパス (今後24時間)

TLE

最新Source: CelesTrak SupGP

元期: Sep 14, 2026, 21:08 UTC

1 57059C 23088M   26257.88104167 -.00010801  00000+0 -39130-3 0  2571
2 57059  42.9995 121.8590 0001739 257.4408 359.7590 15.27577391    18

AllMySatでSTARLINK-6211をリアルタイム追跡

Download on the App Store